CICERO 7 (43143 NORAD) Tracking and Keplerian Element Data

This shows tracking and keplerian element data for the satellite.

Feedback or suggestion? Click here.




ElementValue
Catalog43143
NameCICERO 7
Epoch Orbit12328
Epoch Day91.83964
Epoch Year2020
RAAN164.3885
Inclination97.4526
Eccentricity0.0006718
Argument of Perigee346.6559
Mean Anonmoly13.45
Mean Motion15.25081838
Decay Rate1.768E-05
L11 43143U 18004AJ 20091.83964000 .00001768 00000-0 73562-4 0 9999
L22 43143 97.4526 164.3885 0006718 346.6559 13.4500 15.25081838123285

Live tracking and technical data element details for CICERO 7 (NORAD 43143). CICERO 7 can be tracked NOW for your location showing map with azimuth and elevation plus other details from your city location.

Track the satellite on the map from your city or location and see movement details for azimuth, elevation, latitude, longitude, range, height, and movement on the map or in text.







IsCatalogInMostPopularTable: catalog: 43143, numindb: 324
Update: records affected: 1



GetName: 43143 CICERO 7

Hit Count: updated at: Fri, 03 Apr 2020 07:11:00 GMT